METAR Formatted Surface Weather Observation
Issued by NWS Charleston, SC

Current Version | Previous Version | Text Only | Print | Product List | Glossary On
Versions: 1 2 3 4 5 6 7 8 9 10 11 12 13 14 15 16 17 18 19 20 21 22 23 24 25 26 27 28 29 30 31 32 33 34 35 36 37 38 39 40 41 42 43 44 45 46 47 48 49 50
000
SAUS42 KCHS 312354
MTRSAV
METAR KSAV 312353Z 34005KT 10SM FEW039 FEW060 SCT200 27/22 A3005 RMK
AO2 SLP176 T02670222 10300 20267 53001 $



USA.gov is the U.S. government's official web portal to all federal, state and local government web resources and services.